Location: Pensacola
(30.4142°N, 87.2155°W)
Time: 02:27:01
(UTC-05:00)

TIGRISAT - Visible Passes

Search period start: 10 June 2023 00:00
Search period end: 20 June 2023 00:00
Orbit: 599 x 682 km, 97.7° (Epoch: 09 June)

Date Brightness Start Highest point End Pass type
(mag) Time Alt. Az. Time Alt. Az. Time Alt. Az.
10 Jun ? 04:53:10 10° ESE 04:56:32 23° ENE 04:59:52 10° NNE visible
11 Jun ? 05:15:54 10° SSE 05:19:57 43° ENE 05:23:59 10° N visible
13 Jun ? 04:29:35 10° E 04:30:52 11° ENE 04:32:10 10° NE visible
14 Jun ? 04:50:58 10° ESE 04:54:12 21° ENE 04:57:25 10° NNE visible
15 Jun ? 05:13:36 10° SE 05:17:36 41° ENE 05:21:34 10° N visible
17 Jun ? 04:27:40 10° E 04:28:29 11° ENE 04:29:20 10° ENE visible
18 Jun ? 04:48:41 10° ESE 04:51:48 20° ENE 04:54:54 10° NNE visible
19 Jun ? 05:11:15 10° SE 05:15:10 39° ENE 05:19:05 10° N visible
